HS0QKD-4 Weather Reports


Display with metric or nautical units.
time (UTC)temp
F
wind
direction
speed
MPH
gust
MPH
rain 1hr
in
rain 24hr
in
rain mn
in
humidity
%
barometer
mb
20260509094946 0 0 0.0 0.0 0.00 0.00 0.00 87 740.0
20260509094408 0 0 0.0 0.0 0.00 0.00 0.00 87 740.0
20260509093348 0 0 0.0 0.0 0.00 0.00 0.00 84 740.0
20260509092952 0 0 0.0 0.0 0.00 0.00 0.00 83 738.0
20260509091349 0 0 0.0 0.0 0.00 0.00 0.00 81 738.0
20260509090241 0 0 0.0 0.0 0.00 0.00 0.00 81 738.0
20260509085222 0 0 0.0 0.0 0.00 0.00 0.00 83 738.0
20260509084157 0 0 0.0 0.0 0.00 0.00 0.00 84 739.0
20260509083135 0 0 0.0 0.0 0.00 0.00 0.00 84 739.0
20260509082219 0 0 0.0 0.0 0.00 0.00 0.00 78 738.0
20260509073429 0 0 0.0 0.0 0.00 0.00 0.00 82 739.0
20260509062411 0 0 0.0 0.0 0.00 0.00 0.00 98 744.0
20260509033508 0 0 0.0 0.0 0.00 0.00 0.00 99 747.0
20260509030507 0 0 0.0 0.0 0.00 0.00 0.00 99 748.0
20260509025130 0 0 0.0 0.0 0.00 0.00 0.00 99 748.0
20260509024108 0 0 0.0 0.0 0.00 0.00 0.00 99 748.0
20260509023057 0 0 0.0 0.0 0.00 0.00 0.00 99 749.0
20260509022024 0 0 0.0 0.0 0.00 0.00 0.00 99 749.0
20260509021315 0 0 0.0 0.0 0.00 0.00 0.00 99 750.0
20260509020028 0 0 0.0 0.0 0.00 0.00 0.00 99 750.0
20260509014922 0 0 0.0 0.0 0.00 0.00 0.00 99 750.0
20260509013957 0 0 0.0 0.0 0.00 0.00 0.00 99 751.0
20260509012834 0 0 0.0 0.0 0.00 0.00 0.00 99 751.0
20260509011812 0 0 0.0 0.0 0.00 0.00 0.00 99 751.0
20260509010750 0 0 0.0 0.0 0.00 0.00 0.00 99 751.0
20260509005728 0 0 0.0 0.0 0.00 0.00 0.00 99 751.0
20260509004705 0 0 0.0 0.0 0.00 0.00 0.00 99 751.0
20260509003644 0 0 0.0 0.0 0.00 0.00 0.00 99 752.0
20260509002622 0 0 0.0 0.0 0.00 0.00 0.00 99 752.0
20260509001559 0 0 0.0 0.0 0.00 0.00 0.00 99 752.0
20260509000537 0 0 0.0 0.0 0.00 0.00 0.00 99 752.0
20260508235516 0 0 0.0 0.0 0.00 0.00 0.00 99 752.0
20260508234453 0 0 0.0 0.0 0.00 0.00 0.00 99 752.0
20260508233431 0 0 0.0 0.0 0.00 0.00 0.00 99 752.0
20260508232408 0 0 0.0 0.0 0.00 0.00 0.00 99 752.0
20260508231350 0 0 0.0 0.0 0.00 0.00 0.00 99 752.0
20260508230324 0 0 0.0 0.0 0.00 0.00 0.00 99 752.0
20260508225306 0 0 0.0 0.0 0.00 0.00 0.00 99 752.0
20260508224240 0 0 0.0 0.0 0.00 0.00 0.00 99 752.0
20260508223218 0 0 0.0 0.0 0.00 0.00 0.00 99 752.0
20260508222156 0 0 0.0 0.0 0.00 0.00 0.00 99 752.0
20260508221134 0 0 0.0 0.0 0.00 0.00 0.00 99 752.0
20260508220112 0 0 0.0 0.0 0.00 0.00 0.00 99 751.0
20260508215050 0 0 0.0 0.0 0.00 0.00 0.00 99 751.0
20260508214028 0 0 0.0 0.0 0.00 0.00 0.00 99 751.0
20260508213006 0 0 0.0 0.0 0.00 0.00 0.00 99 751.0
20260508211944 0 0 0.0 0.0 0.00 0.00 0.00 99 751.0
20260508210922 0 0 0.0 0.0 0.00 0.00 0.00 99 751.0
20260508205900 0 0 0.0 0.0 0.00 0.00 0.00 99 751.0
20260508204837 0 0 0.0 0.0 0.00 0.00 0.00 99 751.0
20260508203815 0 0 0.0 0.0 0.00 0.00 0.00 99 751.0
20260508202753 0 0 0.0 0.0 0.00 0.00 0.00 99 751.0
20260508201731 0 0 0.0 0.0 0.00 0.00 0.00 99 751.0
20260508200709 0 0 0.0 0.0 0.00 0.00 0.00 99 751.0
20260508195649 0 0 0.0 0.0 0.00 0.00 0.00 99 751.0
20260508194626 0 0 0.0 0.0 0.00 0.00 0.00 99 751.0
20260508193608 0 0 0.0 0.0 0.00 0.00 0.00 99 752.0
20260508192541 0 0 0.0 0.0 0.00 0.00 0.00 99 751.0
20260508191520 0 0 0.0 0.0 0.00 0.00 0.00 99 751.0
20260508190457 0 0 0.0 0.0 0.00 0.00 0.00 99 751.0
20260508185440 0 0 0.0 0.0 0.00 0.00 0.00 99 751.0
20260508184415 0 0 0.0 0.0 0.00 0.00 0.00 99 751.0
20260508183351 0 0 0.0 0.0 0.00 0.00 0.00 99 751.0
20260508182329 0 0 0.0 0.0 0.00 0.00 0.00 99 750.0
20260508181307 0 0 0.0 0.0 0.00 0.00 0.00 99 751.0
20260508180245 0 0 0.0 0.0 0.00 0.00 0.00 99 750.0
20260508175223 0 0 0.0 0.0 0.00 0.00 0.00 99 751.0
20260508174211 0 0 0.0 0.0 0.00 0.00 0.00 99 751.0
20260508173139 0 0 0.0 0.0 0.00 0.00 0.00 99 751.0
20260508172117 0 0 0.0 0.0 0.00 0.00 0.00 99 751.0
20260508171055 0 0 0.0 0.0 0.00 0.00 0.00 99 751.0
20260508170032 0 0 0.0 0.0 0.00 0.00 0.00 99 751.0
20260508165010 0 0 0.0 0.0 0.00 0.00 0.00 99 752.0
20260508163948 0 0 0.0 0.0 0.00 0.00 0.00 99 752.0
20260508162934 0 0 0.0 0.0 0.00 0.00 0.00 99 752.0
20260508161904 0 0 0.0 0.0 0.00 0.00 0.00 99 751.0
20260508160842 0 0 0.0 0.0 0.00 0.00 0.00 99 752.0
20260508155822 0 0 0.0 0.0 0.00 0.00 0.00 99 752.0
20260508154758 0 0 0.0 0.0 0.00 0.00 0.00 99 752.0
20260508153741 0 0 0.0 0.0 0.00 0.00 0.00 99 751.0
20260508152714 0 0 0.0 0.0 0.00 0.00 0.00 99 752.0
20260508151652 0 0 0.0 0.0 0.00 0.00 0.00 99 752.0
20260508150630 0 0 0.0 0.0 0.00 0.00 0.00 99 752.0
20260508145608 0 0 0.0 0.0 0.00 0.00 0.00 99 752.0
20260508144546 0 0 0.0 0.0 0.00 0.00 0.00 99 752.0
20260508143525 0 0 0.0 0.0 0.00 0.00 0.00 99 752.0
20260508142502 0 0 0.0 0.0 0.00 0.00 0.00 99 752.0
20260508141441 0 0 0.0 0.0 0.00 0.00 0.00 99 752.0
20260508140418 0 0 0.0 0.0 0.00 0.00 0.00 99 752.0
20260508135400 0 0 0.0 0.0 0.00 0.00 0.00 99 752.0
20260508134344 0 0 0.0 0.0 0.00 0.00 0.00 99 751.0
20260508133311 0 0 0.0 0.0 0.00 0.00 0.00 99 751.0
20260508132249 0 0 0.0 0.0 0.00 0.00 0.00 99 751.0
20260508131228 0 0 0.0 0.0 0.00 0.00 0.00 99 751.0
20260508130205 0 0 0.0 0.0 0.00 0.00 0.00 99 751.0
20260508125146 0 0 0.0 0.0 0.00 0.00 0.00 99 751.0
20260508124121 0 0 0.0 0.0 0.00 0.00 0.00 99 751.0
20260508123059 0 0 0.0 0.0 0.00 0.00 0.00 99 751.0
20260508122037 0 0 0.0 0.0 0.00 0.00 0.00 99 751.0
20260508121015 0 0 0.0 0.0 0.00 0.00 0.00 99 751.0
20260508115953 0 0 0.0 0.0 0.00 0.00 0.00 99 751.0
20260508114931 0 0 0.0 0.0 0.00 0.00 0.00 99 750.0
20260508113913 0 0 0.0 0.0 0.00 0.00 0.00 99 750.0
20260508112847 0 0 0.0 0.0 0.00 0.00 0.00 99 750.0
20260508111825 0 0 0.0 0.0 0.00 0.00 0.00 99 750.0
20260508110803 0 0 0.0 0.0 0.00 0.00 0.00 99 750.0
20260508105740 0 0 0.0 0.0 0.00 0.00 0.00 99 750.0
20260508104718 0 0 0.0 0.0 0.00 0.00 0.00 99 750.0
20260508103656 0 0 0.0 0.0 0.00 0.00 0.00 99 749.0
20260508102634 0 0 0.0 0.0 0.00 0.00 0.00 99 750.0
20260508101612 0 0 0.0 0.0 0.00 0.00 0.00 99 749.0